[TLELIST] Archives

 

[list_settings.list_name] Current TLEs

September 18th 2008 PST

HST 1 20580U 90037B 08260.87283911 .00000280 00000-0 87854-5 0 2225 2 20580 028.4676 085.2121 0003604 274.5241 085.4941 15.00407314808762 ISS (ZARYA) 1 25544U 98067A 08261.52936461 .00006298 00000-0 51477-4 0 2708 2 25544 051.6425 262.7665 0006950 121.3171 329.2097 15.72100381563065 CXO 1 25867U 99040B 08260.12500000 +.00000341 +00000-0 +10000-3 0 02438 2 25867 064.1926 077.9647 6999985 277.9798 358.3046 00.37808794003976 ____________________________________________________________________ These 2-Line ...Continue Reading

[list_settings.list_name] Current TLEs

September 17th 2008 PST

HST 1 20580U 90037B 08260.87283911 .00000280 00000-0 87854-5 0 2225 2 20580 028.4676 085.2121 0003604 274.5241 085.4941 15.00407314808762 ISS (ZARYA) 1 25544U 98067A 08260.52254209 .00005033 00000-0 42102-4 0 2622 2 25544 051.6420 267.9221 0006994 117.9417 030.5893 15.72081521562909 CXO 1 25867U 99040B 08260.12500000 +.00000341 +00000-0 +10000-3 0 02438 2 25867 064.1926 077.9647 6999985 277.9798 358.3046 00.37808794003976 ____________________________________________________________________ These 2-Line ...Continue Reading

[list_settings.list_name] Current TLEs

September 16th 2008 PST

HST 1 20580U 90037B 08258.87730566 +.00000277 +00000-0 +85591-5 0 02407 2 20580 028.4677 098.2277 0003689 253.6013 106.4171 15.00406831808466 ISS (ZARYA) 1 25544U 98067A 08259.79592593 .00004684 00000-0 39523-4 0 2589 2 25544 051.6419 271.6431 0007017 115.9630 237.5263 15.72071711562780 CXO 1 25867U 99040B 08260.12500000 +.00000341 +00000-0 +10000-3 0 02438 2 25867 064.1926 077.9647 6999985 277.9798 358.3046 00.37808794003976 ____________________________________________________________________ These 2-Line ...Continue Reading

[list_settings.list_name] Current TLEs

September 15th 2008 PST

HST 1 20580U 90037B 08258.94382342 .00000281 00000-0 88879-5 0 2216 2 20580 028.4678 097.7939 0003676 254.2803 105.7381 15.00406887808473 ISS (ZARYA) 1 25544U 98067A 08258.55010439 .00005276 00000-0 43946-4 0 2498 2 25544 051.6419 278.0214 0006988 111.6802 026.4229 15.72060699562599 CXO 1 25867U 99040B 08254.95833333 +.00000163 +00000-0 +10000-3 0 02421 2 25867 064.1624 078.1062 6991874 277.9806 015.0451 00.37806007003954 ____________________________________________________________________ These 2-Line ...Continue Reading

[list_settings.list_name] Current TLEs

September 14th 2008 PST

HST 1 20580U 90037B 08257.87953908 .00000290 00000-0 95366-5 0 2207 2 20580 028.4677 104.7349 0003668 242.9418 117.0797 15.00406695808310 ISS (ZARYA) 1 25544U 98067A 08258.15690191 .00005512 00000-0 45710-4 0 2464 2 25544 051.6422 280.0340 0006941 110.0823 321.2315 15.72057090562538 CXO 1 25867U 99040B 08254.95833333 +.00000163 +00000-0 +10000-3 0 02421 2 25867 064.1624 078.1062 6991874 277.9806 015.0451 00.37806007003954 ____________________________________________________________________ These 2-Line ...Continue Reading

[list_settings.list_name] Current TLEs

September 13th 2008 PST

HST 1 20580U 90037B 08256.01704197 .00000364 00000-0 15305-4 0 2190 2 20580 028.4675 116.8898 0003840 223.4696 136.5588 15.00406755808035 ISS (ZARYA) 1 25544U 98067A 08256.51778069 .00006423 00000-0 52535-4 0 2378 2 25544 051.6427 288.4259 0007025 104.6145 044.0694 15.72040086562272 CXO 1 25867U 99040B 08254.95833333 +.00000163 +00000-0 +10000-3 0 02421 2 25867 064.1624 078.1062 6991874 277.9806 015.0451 00.37806007003954 ____________________________________________________________________ These 2-Line ...Continue Reading

[list_settings.list_name] Current TLEs

September 12th 2008 PST

HST 1 20580U 90037B 08256.01704197 .00000364 00000-0 15305-4 0 2190 2 20580 028.4675 116.8898 0003840 223.4696 136.5588 15.00406755808035 ISS (ZARYA) 1 25544U 98067A 08255.49905867 .00006927 00000-0 56319-4 0 2296 2 25544 051.6425 293.6415 0007002 102.3921 037.1452 15.72027705562115 CXO 1 25867U 99040B 08254.95833333 +.00000163 +00000-0 +10000-3 0 02421 2 25867 064.1624 078.1062 6991874 277.9806 015.0451 00.37806007003954 ____________________________________________________________________ These 2-Line ...Continue Reading

[list_settings.list_name] Current TLEs

September 11th 2008 PST

HST 1 20580U 90037B 08254.88624042 .00000346 00000-0 13870-4 0 2187 2 20580 028.4675 124.2646 0003891 212.2675 147.7675 15.00406181807862 ISS (ZARYA) 1 25544U 98067A 08254.73007065 .00007046 00000-0 57230-4 0 2268 2 25544 051.6431 297.5784 0006965 100.0113 004.6823 15.72016838561990 CXO 1 25867U 99040B 08252.33333333 +.00000057 +00000-0 +10000-3 0 02417 2 25867 064.1519 078.1742 6986768 277.9949 017.6984 00.37805594003944 ____________________________________________________________________ These 2-Line ...Continue Reading

[list_settings.list_name] Current TLEs

September 10th 2008 PST

HST 1 20580U 90037B 08252.89070774 +.00000313 +00000-0 +11326-4 0 02271 2 20580 028.4676 137.2790 0003972 192.7998 167.2492 15.00405234807566 ISS (ZARYA) 1 25544U 98067A 08253.88111111 .00007069 00000-0 57431-4 0 2203 2 25544 051.6433 301.9253 0007013 097.3388 239.6591 15.72004090561854 CXO 1 25867U 99040B 08252.33333333 +.00000057 +00000-0 +10000-3 0 02417 2 25867 064.1519 078.1742 6986768 277.9949 017.6984 00.37805594003944 ____________________________________________________________________ These 2-Line ...Continue Reading

[list_settings.list_name] Current TLEs

September 9th 2008 PST

HST 1 20580U 90037B 08253.09026076 .00000343 00000-0 13639-4 0 2171 2 20580 028.4678 135.9772 0003964 193.9816 166.0664 15.00405562807591 ISS (ZARYA) 1 25544U 98067A 08251.74075352 +.00009669 +00000-0 +76910-4 0 02089 2 25544 051.6431 312.8835 0006856 092.2049 004.0389 15.71978582561529 CXO 1 25867U 99040B 08252.33333333 +.00000057 +00000-0 +10000-3 0 02417 2 25867 064.1519 078.1742 6986768 277.9949 017.6984 00.37805594003944 ____________________________________________________________________ These 2-Line ...Continue Reading
  • This mailing list is a public mailing list - anyone may join or leave, at any time.
  • This mailing list is announce-only.

International Space Station (ISS) / Hubble Space Telescope (HST) / Chandra X-Ray Observatory Orbital Data via EMAIL

Privacy Policy:

Private list